| time (UTC) | temp F | wind direction | speed MPH | gust MPH | rain 1hr in | rain 24hr in | rain mn in | humidity % | barometer mb |
| 20260507165326 | 70 | 12 | 4.0 | 6.0 | 0.00 | 0.00 | 0.00 | 83 | 1019.3 |
| 20260507164822 | 70 | 25 | 4.0 | 6.0 | 0.00 | 0.00 | 0.00 | 84 | 1019.1 |
| 20260507164319 | 70 | 22 | 4.0 | 7.0 | 0.00 | 0.00 | 0.00 | 84 | 1019.0 |
| 20260507163817 | 69 | 278 | 2.0 | 7.0 | 0.00 | 0.00 | 0.00 | 85 | 1018.8 |
| 20260507163314 | 69 | 328 | 4.0 | 7.0 | 0.00 | 0.00 | 0.00 | 86 | 1019.0 |
| 20260507162810 | 68 | 33 | 3.0 | 6.0 | 0.00 | 0.00 | 0.00 | 86 | 1019.0 |
| 20260507162307 | 68 | 12 | 3.0 | 6.0 | 0.00 | 0.00 | 0.00 | 86 | 1018.8 |
| 20260507161803 | 68 | 36 | 4.0 | 8.0 | 0.00 | 0.00 | 0.00 | 87 | 1018.7 |
| 20260507161300 | 68 | 311 | 4.0 | 7.0 | 0.00 | 0.00 | 0.00 | 87 | 1018.8 |
| 20260507160755 | 67 | 346 | 5.0 | 6.0 | 0.00 | 0.00 | 0.00 | 87 | 1018.6 |
| 20260507160252 | 67 | 357 | 5.0 | 8.0 | 0.00 | 0.00 | 0.00 | 87 | 1018.5 |
| 20260507155748 | 67 | 17 | 4.0 | 7.0 | 0.00 | 0.00 | 0.00 | 86 | 1018.4 |
| 20260507155244 | 67 | 33 | 5.0 | 7.0 | 0.00 | 0.00 | 0.00 | 86 | 1018.5 |
| 20260507154741 | 68 | 31 | 5.0 | 8.0 | 0.00 | 0.00 | 0.00 | 86 | 1018.3 |
| 20260507154239 | 68 | 4 | 6.0 | 8.0 | 0.00 | 0.00 | 0.00 | 86 | 1018.3 |
| 20260507153735 | 68 | 12 | 4.0 | 7.0 | 0.00 | 0.00 | 0.00 | 86 | 1018.2 |
| 20260507153231 | 68 | 27 | 5.0 | 9.0 | 0.00 | 0.00 | 0.00 | 85 | 1018.2 |
| 20260507152728 | 68 | 20 | 5.0 | 9.0 | 0.00 | 0.00 | 0.00 | 85 | 1018.2 |
| 20260507152224 | 68 | 20 | 5.0 | 8.0 | 0.00 | 0.00 | 0.00 | 85 | 1018.0 |
| 20260507151720 | 68 | 32 | 7.0 | 8.0 | 0.00 | 0.00 | 0.00 | 85 | 1018.0 |
| 20260507151217 | 68 | 16 | 4.0 | 7.0 | 0.00 | 0.00 | 0.00 | 85 | 1018.0 |
| 20260507150714 | 68 | 34 | 5.0 | 7.0 | 0.00 | 0.00 | 0.00 | 85 | 1018.0 |
| 20260507150211 | 68 | 7 | 3.0 | 6.0 | 0.00 | 0.00 | 0.00 | 85 | 1017.8 |
| 20260507145706 | 68 | 10 | 4.0 | 4.0 | 0.00 | 0.00 | 0.00 | 85 | 1017.8 |
| 20260507145203 | 68 | 315 | 3.0 | 6.0 | 0.00 | 0.00 | 0.00 | 85 | 1017.6 |
| 20260507144700 | 68 | 33 | 4.0 | 6.0 | 0.00 | 0.00 | 0.00 | 85 | 1017.4 |
| 20260507144158 | 68 | 9 | 3.0 | 6.0 | 0.00 | 0.00 | 0.00 | 85 | 1017.5 |
| 20260507143655 | 68 | 2 | 3.0 | 6.0 | 0.00 | 0.00 | 0.00 | 85 | 1017.4 |
| 20260507143152 | 68 | 29 | 3.0 | 4.0 | 0.00 | 0.00 | 0.00 | 84 | 1017.5 |
| 20260507142647 | 69 | 348 | 3.0 | 4.0 | 0.00 | 0.00 | 0.00 | 84 | 1017.6 |
| 20260507142144 | 69 | 17 | 2.0 | 6.0 | 0.00 | 0.00 | 0.00 | 84 | 1017.5 |
| 20260507141641 | 69 | 307 | 1.0 | 4.0 | 0.00 | 0.00 | 0.00 | 84 | 1017.6 |
| 20260507141137 | 69 | 9 | 3.0 | 3.0 | 0.00 | 0.00 | 0.00 | 84 | 1017.6 |
| 20260507140634 | 69 | 331 | 3.0 | 3.0 | 0.00 | 0.00 | 0.00 | 84 | 1017.6 |
| 20260507140131 | 69 | 351 | 2.0 | 3.0 | 0.00 | 0.00 | 0.00 | 83 | 1017.8 |
| 20260507135628 | 69 | 11 | 2.0 | 3.0 | 0.00 | 0.00 | 0.00 | 83 | 1017.8 |
| 20260507135126 | 69 | 6 | 2.0 | 4.0 | 0.00 | 0.00 | 0.00 | 83 | 1017.8 |
| 20260507134622 | 69 | 313 | 3.0 | 4.0 | 0.00 | 0.00 | 0.00 | 83 | 1017.8 |
| 20260507134118 | 69 | 309 | 2.0 | 3.0 | 0.00 | 0.00 | 0.00 | 82 | 1017.9 |
| 20260507133614 | 70 | 7 | 2.0 | 3.0 | 0.00 | 0.00 | 0.00 | 82 | 1017.8 |
| 20260507133112 | 70 | 328 | 2.0 | 4.0 | 0.00 | 0.00 | 0.00 | 82 | 1018.0 |
| 20260507132608 | 70 | 313 | 1.0 | 2.0 | 0.00 | 0.00 | 0.00 | 82 | 1018.0 |
| 20260507132105 | 70 | 281 | 2.0 | 3.0 | 0.00 | 0.00 | 0.00 | 82 | 1018.0 |
| 20260507131602 | 70 | 346 | 2.0 | 3.0 | 0.00 | 0.00 | 0.00 | 82 | 1017.9 |
| 20260507131059 | 70 | 274 | 3.0 | 3.0 | 0.00 | 0.00 | 0.00 | 82 | 1018.0 |
| 20260507130556 | 70 | 23 | 2.0 | 4.0 | 0.00 | 0.00 | 0.00 | 81 | 1018.0 |
| 20260507130054 | 70 | 20 | 3.0 | 4.0 | 0.00 | 0.00 | 0.00 | 81 | 1018.0 |
| 20260507125553 | 70 | 287 | 3.0 | 6.0 | 0.00 | 0.00 | 0.00 | 82 | 1018.1 |
| 20260507125050 | 70 | 28 | 2.0 | 3.0 | 0.00 | 0.00 | 0.00 | 81 | 1018.2 |
| 20260507124546 | 71 | 343 | 3.0 | 4.0 | 0.00 | 0.00 | 0.00 | 81 | 1018.2 |
| 20260507124044 | 71 | 263 | 3.0 | 3.0 | 0.00 | 0.00 | 0.00 | 81 | 1018.2 |
| 20260507123541 | 71 | 322 | 2.0 | 4.0 | 0.00 | 0.00 | 0.00 | 81 | 1018.3 |
| 20260507123038 | 71 | 300 | 3.0 | 4.0 | 0.00 | 0.00 | 0.00 | 81 | 1018.4 |
| 20260507122533 | 71 | 38 | 2.0 | 4.0 | 0.00 | 0.00 | 0.00 | 81 | 1018.3 |
| 20260507122029 | 71 | 327 | 2.0 | 6.0 | 0.00 | 0.00 | 0.00 | 81 | 1018.4 |
| 20260507121525 | 71 | 356 | 3.0 | 4.0 | 0.00 | 0.00 | 0.00 | 81 | 1018.3 |
| 20260507121021 | 70 | 27 | 2.0 | 3.0 | 0.00 | 0.00 | 0.00 | 81 | 1018.4 |
| 20260507120518 | 71 | 344 | 3.0 | 3.0 | 0.00 | 0.00 | 0.00 | 81 | 1018.5 |
| 20260507120015 | 71 | 277 | 2.0 | 4.0 | 0.00 | 0.00 | 0.00 | 81 | 1018.5 |
| 20260507115511 | 71 | 33 | 3.0 | 4.0 | 0.00 | 0.00 | 0.00 | 81 | 1018.6 |
| 20260507115007 | 71 | 330 | 2.0 | 3.0 | 0.00 | 0.00 | 0.00 | 81 | 1018.5 |
| 20260507114503 | 71 | 27 | 2.0 | 4.0 | 0.00 | 0.00 | 0.00 | 81 | 1018.5 |
| 20260507114000 | 71 | 341 | 3.0 | 4.0 | 0.00 | 0.00 | 0.00 | 81 | 1018.7 |
| 20260507113457 | 71 | 290 | 2.0 | 4.0 | 0.00 | 0.00 | 0.00 | 81 | 1018.6 |
| 20260507112954 | 71 | 351 | 4.0 | 4.0 | 0.00 | 0.00 | 0.00 | 81 | 1018.9 |
| 20260507112452 | 70 | 29 | 3.0 | 6.0 | 0.00 | 0.00 | 0.00 | 81 | 1018.9 |
| 20260507111948 | 71 | 343 | 2.0 | 4.0 | 0.00 | 0.00 | 0.00 | 81 | 1018.9 |
| 20260507111446 | 71 | 344 | 3.0 | 6.0 | 0.00 | 0.00 | 0.00 | 81 | 1019.0 |
| 20260507110942 | 70 | 9 | 4.0 | 6.0 | 0.00 | 0.00 | 0.00 | 81 | 1018.9 |
| 20260507110439 | 70 | 8 | 3.0 | 4.0 | 0.00 | 0.00 | 0.00 | 81 | 1019.0 |
| 20260507105935 | 70 | 12 | 3.0 | 4.0 | 0.00 | 0.00 | 0.00 | 81 | 1019.1 |
| 20260507105432 | 70 | 16 | 2.0 | 4.0 | 0.00 | 0.00 | 0.00 | 81 | 1019.1 |
| 20260507104929 | 71 | 326 | 4.0 | 6.0 | 0.00 | 0.00 | 0.00 | 80 | 1019.1 |
| 20260507104426 | 71 | 18 | 4.0 | 6.0 | 0.00 | 0.00 | 0.00 | 80 | 1019.2 |
| 20260507103926 | 71 | 337 | 2.0 | 7.0 | 0.00 | 0.00 | 0.00 | 80 | 1019.1 |
| 20260507103424 | 71 | 25 | 5.0 | 7.0 | 0.00 | 0.00 | 0.00 | 80 | 1018.9 |
| 20260507102920 | 71 | 42 | 4.0 | 6.0 | 0.00 | 0.00 | 0.00 | 80 | 1019.1 |
| 20260507102417 | 71 | 327 | 4.0 | 6.0 | 0.00 | 0.00 | 0.00 | 80 | 1019.3 |
| 20260507101913 | 71 | 25 | 5.0 | 7.0 | 0.00 | 0.00 | 0.00 | 80 | 1019.3 |
| 20260507101408 | 71 | 0 | 4.0 | 6.0 | 0.00 | 0.00 | 0.00 | 80 | 1019.2 |
| 20260507100905 | 71 | 30 | 4.0 | 7.0 | 0.00 | 0.00 | 0.00 | 80 | 1019.3 |
| 20260507100403 | 71 | 16 | 5.0 | 6.0 | 0.00 | 0.00 | 0.00 | 80 | 1019.3 |
| 20260507095901 | 71 | 40 | 4.0 | 6.0 | 0.00 | 0.00 | 0.00 | 80 | 1019.6 |
| 20260507095357 | 71 | 29 | 5.0 | 7.0 | 0.00 | 0.00 | 0.00 | 80 | 1019.4 |
| 20260507094855 | 71 | 11 | 6.0 | 8.0 | 0.00 | 0.00 | 0.00 | 80 | 1019.6 |
| 20260507094351 | 71 | 354 | 2.0 | 4.0 | 0.00 | 0.00 | 0.00 | 79 | 1019.5 |
| 20260507093848 | 71 | 32 | 4.0 | 7.0 | 0.00 | 0.00 | 0.00 | 79 | 1019.5 |
| 20260507093346 | 71 | 6 | 5.0 | 8.0 | 0.00 | 0.00 | 0.00 | 79 | 1019.5 |
| 20260507092844 | 71 | 354 | 5.0 | 7.0 | 0.00 | 0.00 | 0.00 | 79 | 1019.6 |
| 20260507092340 | 71 | 358 | 4.0 | 7.0 | 0.00 | 0.00 | 0.00 | 79 | 1019.7 |
| 20260507091836 | 71 | 15 | 5.0 | 7.0 | 0.00 | 0.00 | 0.00 | 79 | 1019.7 |
| 20260507091333 | 71 | 8 | 4.0 | 7.0 | 0.00 | 0.00 | 0.00 | 78 | 1019.7 |
| 20260507090829 | 71 | 10 | 4.0 | 7.0 | 0.00 | 0.00 | 0.00 | 78 | 1019.8 |
| 20260507090325 | 72 | 7 | 4.0 | 7.0 | 0.00 | 0.00 | 0.00 | 78 | 1019.7 |
| 20260507085822 | 72 | 322 | 3.0 | 8.0 | 0.00 | 0.00 | 0.00 | 78 | 1019.7 |
| 20260507085319 | 71 | 44 | 7.0 | 9.0 | 0.00 | 0.00 | 0.00 | 78 | 1019.7 |
| 20260507084817 | 71 | 27 | 5.0 | 8.0 | 0.00 | 0.00 | 0.00 | 78 | 1019.7 |
| 20260507084313 | 71 | 13 | 5.0 | 7.0 | 0.00 | 0.00 | 0.00 | 78 | 1019.8 |
| 20260507083810 | 71 | 18 | 4.0 | 6.0 | 0.00 | 0.00 | 0.00 | 78 | 1019.7 |
| 20260507083307 | 71 | 342 | 5.0 | 8.0 | 0.00 | 0.00 | 0.00 | 78 | 1019.9 |
| 20260507082803 | 71 | 30 | 5.0 | 7.0 | 0.00 | 0.00 | 0.00 | 78 | 1019.7 |
| 20260507082259 | 71 | 357 | 5.0 | 8.0 | 0.00 | 0.00 | 0.00 | 78 | 1019.7 |
| 20260507081756 | 72 | 45 | 7.0 | 9.0 | 0.00 | 0.00 | 0.00 | 78 | 1019.8 |
| 20260507081252 | 72 | 336 | 4.0 | 8.0 | 0.00 | 0.00 | 0.00 | 78 | 1019.5 |
| 20260507080749 | 72 | 48 | 5.0 | 8.0 | 0.00 | 0.00 | 0.00 | 78 | 1019.6 |
| 20260507080245 | 72 | 1 | 6.0 | 8.0 | 0.00 | 0.00 | 0.00 | 78 | 1019.6 |
| 20260507075740 | 72 | 31 | 5.0 | 7.0 | 0.00 | 0.00 | 0.00 | 78 | 1019.7 |
| 20260507075237 | 72 | 13 | 6.0 | 9.0 | 0.00 | 0.00 | 0.00 | 78 | 1019.6 |
| 20260507074733 | 72 | 313 | 5.0 | 8.0 | 0.00 | 0.00 | 0.00 | 78 | 1019.8 |
| 20260507074231 | 72 | 41 | 5.0 | 8.0 | 0.00 | 0.00 | 0.00 | 78 | 1019.6 |
| 20260507073727 | 72 | 320 | 4.0 | 6.0 | 0.00 | 0.00 | 0.00 | 79 | 1019.7 |
| 20260507073224 | 71 | 48 | 5.0 | 7.0 | 0.00 | 0.00 | 0.00 | 79 | 1019.5 |
| 20260507072722 | 71 | 329 | 6.0 | 7.0 | 0.00 | 0.00 | 0.00 | 79 | 1019.7 |
| 20260507072219 | 71 | 296 | 4.0 | 8.0 | 0.00 | 0.00 | 0.00 | 80 | 1019.6 |
| 20260507071717 | 71 | 2 | 5.0 | 8.0 | 0.00 | 0.00 | 0.00 | 80 | 1019.5 |
| 20260507071213 | 71 | 350 | 4.0 | 8.0 | 0.00 | 0.00 | 0.00 | 80 | 1019.5 |
| 20260507070710 | 71 | 354 | 4.0 | 7.0 | 0.00 | 0.00 | 0.00 | 80 | 1019.3 |
| 20260507070207 | 71 | 354 | 5.0 | 8.0 | 0.00 | 0.00 | 0.00 | 80 | 1019.3 |
| 20260507065703 | 71 | 18 | 4.0 | 7.0 | 0.00 | 0.00 | 0.00 | 81 | 1019.2 |
| 20260507065200 | 71 | 27 | 4.0 | 7.0 | 0.00 | 0.00 | 0.00 | 81 | 1019.1 |
| 20260507064657 | 71 | 12 | 4.0 | 7.0 | 0.00 | 0.00 | 0.00 | 80 | 1019.1 |
| 20260507064156 | 71 | 40 | 5.0 | 8.0 | 0.00 | 0.00 | 0.00 | 80 | 1019.0 |
| 20260507063653 | 72 | 32 | 5.0 | 7.0 | 0.00 | 0.00 | 0.00 | 80 | 1019.0 |
| 20260507063150 | 72 | 4 | 4.0 | 9.0 | 0.00 | 0.00 | 0.00 | 80 | 1019.0 |
| 20260507062647 | 72 | 6 | 4.0 | 8.0 | 0.00 | 0.00 | 0.00 | 81 | 1019.2 |
| 20260507062144 | 72 | 359 | 5.0 | 9.0 | 0.00 | 0.00 | 0.00 | 81 | 1018.7 |
| 20260507061642 | 72 | 34 | 5.0 | 8.0 | 0.00 | 0.00 | 0.00 | 81 | 1018.8 |
| 20260507061140 | 72 | 359 | 4.0 | 7.0 | 0.00 | 0.00 | 0.00 | 81 | 1018.8 |
| 20260507060638 | 72 | 342 | 5.0 | 7.0 | 0.00 | 0.00 | 0.00 | 81 | 1018.5 |
| 20260507060134 | 72 | 34 | 6.0 | 9.0 | 0.00 | 0.00 | 0.00 | 81 | 1018.4 |
| 20260507055629 | 72 | 5 | 5.0 | 7.0 | 0.00 | 0.00 | 0.00 | 81 | 1018.5 |
| 20260507055126 | 72 | 324 | 4.0 | 8.0 | 0.00 | 0.00 | 0.00 | 81 | 1018.5 |
| 20260507054621 | 72 | 331 | 4.0 | 8.0 | 0.00 | 0.00 | 0.00 | 81 | 1018.4 |
| 20260507054119 | 72 | 23 | 7.0 | 9.0 | 0.00 | 0.00 | 0.00 | 81 | 1018.5 |
| 20260507053617 | 72 | 25 | 6.0 | 9.0 | 0.00 | 0.00 | 0.00 | 81 | 1018.3 |
| 20260507053115 | 72 | 36 | 6.0 | 9.0 | 0.00 | 0.00 | 0.00 | 81 | 1018.1 |
| 20260507052613 | 72 | 15 | 4.0 | 7.0 | 0.00 | 0.00 | 0.00 | 80 | 1018.3 |
| 20260507052109 | 72 | 0 | 3.0 | 7.0 | 0.00 | 0.00 | 0.00 | 80 | 1018.1 |
| 20260507051607 | 72 | 26 | 4.0 | 7.0 | 0.00 | 0.00 | 0.00 | 80 | 1018.2 |
| 20260507051103 | 72 | 43 | 4.0 | 9.0 | 0.00 | 0.00 | 0.00 | 80 | 1018.3 |
| 20260507050600 | 73 | 328 | 3.0 | 7.0 | 0.00 | 0.00 | 0.00 | 80 | 1018.0 |
| 20260507050056 | 73 | 7 | 6.0 | 8.0 | 0.00 | 0.00 | 0.00 | 80 | 1018.0 |
| 20260507045553 | 73 | 20 | 3.0 | 7.0 | 0.00 | 0.00 | 0.00 | 80 | 1017.9 |
| 20260507045050 | 73 | 352 | 3.0 | 6.0 | 0.00 | 0.00 | 0.00 | 79 | 1017.9 |
| 20260507044547 | 73 | 33 | 6.0 | 8.0 | 0.00 | 0.00 | 0.00 | 79 | 1017.8 |
| 20260507044044 | 73 | 342 | 4.0 | 9.0 | 0.00 | 0.00 | 0.00 | 79 | 1017.9 |
| 20260507043539 | 73 | 48 | 5.0 | 8.0 | 0.00 | 0.00 | 0.00 | 79 | 1017.5 |
| 20260507043037 | 73 | 14 | 4.0 | 9.0 | 0.00 | 0.00 | 0.00 | 80 | 1017.4 |
| 20260507042533 | 73 | 26 | 5.0 | 7.0 | 0.00 | 0.00 | 0.00 | 80 | 1017.5 |
| 20260507042029 | 73 | 37 | 5.0 | 8.0 | 0.00 | 0.00 | 0.00 | 80 | 1017.5 |
| 20260507041526 | 73 | 345 | 6.0 | 7.0 | 0.00 | 0.00 | 0.00 | 80 | 1017.3 |
| 20260507041023 | 73 | 38 | 5.0 | 9.0 | 0.00 | 0.00 | 0.00 | 80 | 1017.2 |
| 20260507040519 | 73 | 323 | 7.0 | 9.0 | 0.00 | 0.00 | 0.00 | 80 | 1017.2 |
| 20260507040015 | 73 | 13 | 4.0 | 7.0 | 0.00 | 0.00 | 0.00 | 80 | 1017.3 |
| 20260507035511 | 73 | 30 | 5.0 | 11.0 | 0.00 | 0.00 | 0.00 | 79 | 1017.2 |
| 20260507035008 | 73 | 25 | 6.0 | 9.0 | 0.00 | 0.00 | 0.00 | 79 | 1017.1 |
| 20260507034505 | 73 | 300 | 5.0 | 8.0 | 0.00 | 0.00 | 0.00 | 79 | 1016.9 |
| 20260507034003 | 73 | 337 | 4.0 | 9.0 | 0.00 | 0.00 | 0.00 | 79 | 1016.8 |
| 20260507033501 | 73 | 25 | 5.0 | 7.0 | 0.00 | 0.00 | 0.00 | 80 | 1016.8 |
| 20260507032957 | 73 | 9 | 7.0 | 9.0 | 0.00 | 0.00 | 0.00 | 80 | 1017.0 |
| 20260507032454 | 73 | 31 | 8.0 | 10.0 | 0.00 | 0.00 | 0.00 | 80 | 1016.7 |
| 20260507031950 | 73 | 3 | 4.0 | 10.0 | 0.00 | 0.00 | 0.00 | 80 | 1016.8 |
| 20260507031447 | 73 | 24 | 5.0 | 10.0 | 0.00 | 0.00 | 0.00 | 80 | 1016.9 |
| 20260507030944 | 73 | 14 | 8.0 | 10.0 | 0.00 | 0.00 | 0.00 | 80 | 1016.9 |
| 20260507030441 | 73 | 343 | 5.0 | 8.0 | 0.00 | 0.00 | 0.00 | 80 | 1016.7 |
| 20260507025938 | 73 | 10 | 6.0 | 14.0 | 0.00 | 0.00 | 0.00 | 80 | 1016.7 |
| 20260507025435 | 73 | 5 | 7.0 | 10.0 | 0.00 | 0.00 | 0.00 | 80 | 1016.7 |
| 20260507024933 | 73 | 335 | 6.0 | 10.0 | 0.00 | 0.00 | 0.00 | 80 | 1016.6 |
| 20260507024430 | 73 | 1 | 7.0 | 11.0 | 0.00 | 0.00 | 0.00 | 80 | 1016.6 |
| 20260507023926 | 73 | 339 | 4.0 | 9.0 | 0.00 | 0.00 | 0.00 | 80 | 1016.7 |
| 20260507023423 | 73 | 17 | 6.0 | 8.0 | 0.00 | 0.00 | 0.00 | 80 | 1016.6 |
| 20260507022920 | 73 | 349 | 9.0 | 10.0 | 0.00 | 0.00 | 0.00 | 80 | 1016.7 |
| 20260507022417 | 73 | 35 | 7.0 | 10.0 | 0.00 | 0.00 | 0.00 | 81 | 1016.6 |
| 20260507021913 | 73 | 9 | 6.0 | 11.0 | 0.00 | 0.00 | 0.00 | 81 | 1016.7 |
| 20260507021408 | 73 | 18 | 8.0 | 10.0 | 0.00 | 0.00 | 0.00 | 80 | 1016.6 |
| 20260507020906 | 73 | 45 | 10.0 | 15.0 | 0.00 | 0.00 | 0.00 | 80 | 1016.7 |
| 20260507020402 | 73 | 26 | 6.0 | 13.0 | 0.00 | 0.00 | 0.00 | 80 | 1016.6 |
| 20260507015859 | 73 | 39 | 9.0 | 11.0 | 0.00 | 0.00 | 0.00 | 80 | 1016.8 |
| 20260507015358 | 73 | 15 | 7.0 | 10.0 | 0.00 | 0.00 | 0.00 | 80 | 1016.8 |
| 20260507014854 | 73 | 9 | 5.0 | 10.0 | 0.00 | 0.00 | 0.00 | 81 | 1016.8 |
| 20260507014350 | 73 | 340 | 7.0 | 13.0 | 0.00 | 0.00 | 0.00 | 81 | 1016.8 |
| 20260507013847 | 73 | 22 | 7.0 | 11.0 | 0.00 | 0.00 | 0.00 | 80 | 1016.8 |
| 20260507013344 | 73 | 23 | 6.0 | 9.0 | 0.00 | 0.00 | 0.00 | 81 | 1016.7 |
| 20260507012842 | 74 | 15 | 6.0 | 8.0 | 0.00 | 0.00 | 0.00 | 80 | 1016.7 |
| 20260507012337 | 74 | 15 | 7.0 | 11.0 | 0.00 | 0.00 | 0.00 | 80 | 1017.0 |
| 20260507011835 | 74 | 13 | 9.0 | 13.0 | 0.00 | 0.00 | 0.00 | 79 | 1016.9 |
| 20260507011332 | 74 | 10 | 6.0 | 10.0 | 0.00 | 0.00 | 0.00 | 79 | 1016.6 |
| 20260507010831 | 74 | 38 | 6.0 | 10.0 | 0.00 | 0.00 | 0.00 | 79 | 1016.8 |
| 20260507010327 | 74 | 13 | 7.0 | 11.0 | 0.00 | 0.00 | 0.00 | 79 | 1016.9 |
| 20260507005825 | 74 | 21 | 9.0 | 11.0 | 0.00 | 0.00 | 0.00 | 79 | 1017.0 |
| 20260507005321 | 75 | 54 | 6.0 | 11.0 | 0.00 | 0.00 | 0.00 | 78 | 1017.0 |
| 20260507004818 | 75 | 9 | 8.0 | 10.0 | 0.00 | 0.00 | 0.00 | 78 | 1017.1 |
| 20260507004315 | 75 | 13 | 8.0 | 13.0 | 0.00 | 0.00 | 0.00 | 77 | 1016.9 |
| 20260507003813 | 75 | 35 | 8.0 | 14.0 | 0.00 | 0.00 | 0.00 | 77 | 1017.0 |
| 20260507003308 | 76 | 315 | 8.0 | 10.0 | 0.00 | 0.00 | 0.00 | 76 | 1017.2 |
| 20260507002803 | 76 | 325 | 4.0 | 11.0 | 0.00 | 0.00 | 0.00 | 76 | 1017.3 |
| 20260507002259 | 77 | 14 | 3.0 | 9.0 | 0.00 | 0.00 | 0.00 | 75 | 1017.3 |
| 20260507001757 | 77 | 136 | 4.0 | 7.0 | 0.00 | 0.00 | 0.00 | 75 | 1017.3 |
| 20260507001254 | 77 | 24 | 2.0 | 9.0 | 0.00 | 0.00 | 0.00 | 75 | 1017.3 |
| 20260507000750 | 77 | 64 | 3.0 | 4.0 | 0.00 | 0.00 | 0.00 | 74 | 1017.5 |
| 20260507000246 | 77 | 341 | 4.0 | 4.0 | 0.00 | 0.00 | 0.00 | 74 | 1017.5 |
| 20260506235743 | 77 | 99 | 4.0 | 6.0 | 0.00 | 0.00 | 0.00 | 73 | 1017.4 |
| 20260506235238 | 78 | 90 | 6.0 | 9.0 | 0.00 | 0.00 | 0.00 | 72 | 1017.6 |
| 20260506234736 | 78 | 121 | 3.0 | 7.0 | 0.00 | 0.00 | 0.00 | 72 | 1017.6 |
| 20260506234233 | 78 | 52 | 4.0 | 9.0 | 0.00 | 0.00 | 0.00 | 73 | 1017.5 |
| 20260506233730 | 78 | 336 | 2.0 | 7.0 | 0.00 | 0.00 | 0.00 | 75 | 1017.5 |
| 20260506233226 | 78 | 26 | 7.0 | 10.0 | 0.00 | 0.00 | 0.00 | 74 | 1017.6 |
| 20260506232723 | 78 | 22 | 4.0 | 9.0 | 0.00 | 0.00 | 0.00 | 75 | 1017.5 |
| 20260506232218 | 78 | 23 | 5.0 | 13.0 | 0.00 | 0.00 | 0.00 | 74 | 1017.6 |
| 20260506231716 | 78 | 53 | 9.0 | 11.0 | 0.00 | 0.00 | 0.00 | 74 | 1017.6 |
| 20260506231214 | 78 | 20 | 7.0 | 13.0 | 0.00 | 0.00 | 0.00 | 73 | 1017.4 |
| 20260506230710 | 78 | 6 | 6.0 | 14.0 | 0.00 | 0.00 | 0.00 | 73 | 1017.5 |
| 20260506230207 | 78 | 29 | 7.0 | 10.0 | 0.00 | 0.00 | 0.00 | 72 | 1017.5 |
| 20260506225704 | 78 | 36 | 8.0 | 11.0 | 0.00 | 0.00 | 0.00 | 72 | 1017.4 |
| 20260506225201 | 79 | 22 | 6.0 | 15.0 | 0.00 | 0.00 | 0.00 | 72 | 1017.4 |
| 20260506224657 | 79 | 277 | 8.0 | 13.0 | 0.00 | 0.00 | 0.00 | 71 | 1017.8 |
| 20260506224154 | 80 | 74 | 9.0 | 15.0 | 0.00 | 0.00 | 0.00 | 70 | 1017.5 |
| 20260506223650 | 80 | 13 | 6.0 | 9.0 | 0.00 | 0.00 | 0.00 | 70 | 1017.5 |
| 20260506223146 | 79 | 8 | 6.0 | 14.0 | 0.00 | 0.00 | 0.00 | 69 | 1017.6 |
| 20260506222643 | 79 | 314 | 4.0 | 11.0 | 0.00 | 0.00 | 0.00 | 69 | 1017.6 |
| 20260506222139 | 79 | 355 | 7.0 | 11.0 | 0.00 | 0.00 | 0.00 | 70 | 1017.8 |
| 20260506221637 | 80 | 17 | 6.0 | 13.0 | 0.00 | 0.00 | 0.00 | 68 | 1017.5 |
| 20260506221135 | 81 | 325 | 3.0 | 9.0 | 0.00 | 0.00 | 0.00 | 66 | 1017.6 |
| 20260506220631 | 82 | 3 | 7.0 | 10.0 | 0.00 | 0.00 | 0.00 | 63 | 1017.6 |
| 20260506220127 | 83 | 357 | 5.0 | 8.0 | 0.00 | 0.00 | 0.00 | 63 | 1017.9 |
| 20260506215624 | 82 | 237 | 1.0 | 6.0 | 0.00 | 0.00 | 0.00 | 60 | 1017.6 |
| 20260506215119 | 82 | 97 | 2.0 | 6.0 | 0.00 | 0.00 | 0.00 | 59 | 1017.9 |
| 20260506214616 | 82 | 51 | 5.0 | 9.0 | 0.00 | 0.00 | 0.00 | 60 | 1017.8 |
| 20260506214113 | 82 | 16 | 5.0 | 9.0 | 0.00 | 0.00 | 0.00 | 63 | 1018.0 |
| 20260506213612 | 81 | 328 | 8.0 | 9.0 | 0.00 | 0.00 | 0.00 | 62 | 1017.9 |
| 20260506213108 | 81 | 8 | 6.0 | 9.0 | 0.00 | 0.00 | 0.00 | 64 | 1018.0 |
| 20260506212606 | 80 | 318 | 3.0 | 9.0 | 0.00 | 0.00 | 0.00 | 66 | 1018.1 |
| 20260506212100 | 79 | 41 | 4.0 | 10.0 | 0.00 | 0.00 | 0.00 | 66 | 1018.2 |
| 20260506211556 | 79 | 11 | 6.0 | 9.0 | 0.00 | 0.00 | 0.00 | 67 | 1018.2 |
| 20260506211053 | 79 | 296 | 4.0 | 7.0 | 0.00 | 0.00 | 0.00 | 66 | 1018.2 |
| 20260506210550 | 79 | 19 | 6.0 | 8.0 | 0.00 | 0.00 | 0.00 | 66 | 1018.4 |
| 20260506210047 | 80 | 348 | 4.0 | 8.0 | 0.00 | 0.00 | 0.00 | 66 | 1018.6 |
| 20260506205543 | 80 | 301 | 2.0 | 6.0 | 0.00 | 0.00 | 0.00 | 67 | 1018.3 |
| 20260506205038 | 80 | 81 | 5.0 | 8.0 | 0.00 | 0.00 | 0.00 | 67 | 1018.3 |
| 20260506204537 | 79 | 61 | 7.0 | 13.0 | 0.00 | 0.00 | 0.00 | 67 | 1018.4 |
| 20260506204034 | 79 | 15 | 3.0 | 10.0 | 0.00 | 0.00 | 0.00 | 68 | 1018.2 |
| 20260506203532 | 79 | 47 | 5.0 | 10.0 | 0.00 | 0.00 | 0.00 | 68 | 1018.4 |
| 20260506203028 | 79 | 38 | 8.0 | 11.0 | 0.00 | 0.00 | 0.00 | 68 | 1018.3 |
| 20260506202526 | 78 | 29 | 2.0 | 8.0 | 0.00 | 0.00 | 0.00 | 70 | 1018.4 |
| 20260506202021 | 78 | 39 | 4.0 | 10.0 | 0.00 | 0.00 | 0.00 | 71 | 1018.4 |
| 20260506201520 | 78 | 41 | 7.0 | 11.0 | 0.00 | 0.00 | 0.00 | 72 | 1018.3 |
| 20260506201016 | 77 | 63 | 6.0 | 10.0 | 0.00 | 0.00 | 0.00 | 72 | 1018.3 |
| 20260506200512 | 77 | 336 | 11.0 | 14.0 | 0.00 | 0.00 | 0.00 | 72 | 1018.3 |
| 20260506200009 | 77 | 349 | 7.0 | 10.0 | 0.00 | 0.00 | 0.00 | 72 | 1018.2 |
| 20260506195506 | 77 | 18 | 5.0 | 13.0 | 0.00 | 0.00 | 0.00 | 73 | 1018.2 |
| 20260506195002 | 77 | 42 | 6.0 | 11.0 | 0.00 | 0.00 | 0.00 | 72 | 1018.3 |
| 20260506194500 | 77 | 336 | 7.0 | 8.0 | 0.00 | 0.00 | 0.00 | 72 | 1018.3 |
| 20260506193956 | 77 | 15 | 6.0 | 13.0 | 0.00 | 0.00 | 0.00 | 74 | 1018.3 |
| 20260506193454 | 76 | 54 | 9.0 | 13.0 | 0.00 | 0.00 | 0.00 | 75 | 1018.2 |
| 20260506192950 | 76 | 34 | 9.0 | 11.0 | 0.00 | 0.00 | 0.00 | 76 | 1018.2 |
| 20260506192447 | 76 | 12 | 8.0 | 11.0 | 0.00 | 0.00 | 0.00 | 76 | 1018.1 |
| 20260506191943 | 76 | 31 | 6.0 | 11.0 | 0.00 | 0.00 | 0.00 | 76 | 1018.2 |
| 20260506191440 | 76 | 348 | 6.0 | 13.0 | 0.00 | 0.00 | 0.00 | 78 | 1017.9 |
| 20260506190937 | 76 | 39 | 6.0 | 10.0 | 0.00 | 0.00 | 0.00 | 79 | 1018.0 |
| 20260506190434 | 75 | 30 | 6.0 | 13.0 | 0.00 | 0.00 | 0.00 | 79 | 1018.0 |
| 20260506185930 | 75 | 56 | 7.0 | 13.0 | 0.00 | 0.00 | 0.00 | 79 | 1017.9 |
| 20260506185428 | 75 | 50 | 8.0 | 13.0 | 0.00 | 0.00 | 0.00 | 79 | 1017.9 |
| 20260506184925 | 75 | 54 | 9.0 | 14.0 | 0.00 | 0.00 | 0.00 | 80 | 1017.5 |
| 20260506184422 | 75 | 14 | 11.0 | 14.0 | 0.00 | 0.00 | 0.00 | 80 | 1017.6 |
| 20260506183919 | 75 | 314 | 6.0 | 14.0 | 0.00 | 0.00 | 0.00 | 81 | 1017.9 |
| 20260506183414 | 75 | 8 | 10.0 | 14.0 | 0.00 | 0.00 | 0.00 | 80 | 1017.6 |
| 20260506182912 | 75 | 33 | 7.0 | 10.0 | 0.00 | 0.00 | 0.00 | 81 | 1017.6 |
| 20260506182409 | 75 | 13 | 8.0 | 10.0 | 0.00 | 0.00 | 0.00 | 81 | 1017.9 |
| 20260506181906 | 75 | 61 | 5.0 | 7.0 | 0.00 | 0.00 | 0.00 | 82 | 1017.8 |
| 20260506181404 | 74 | 347 | 7.0 | 10.0 | 0.00 | 0.00 | 0.00 | 82 | 1017.6 |
| 20260506180901 | 74 | 30 | 8.0 | 10.0 | 0.00 | 0.00 | 0.00 | 83 | 1017.9 |
| 20260506180357 | 74 | 3 | 6.0 | 10.0 | 0.00 | 0.00 | 0.00 | 83 | 1017.6 |
| 20260506175854 | 74 | 35 | 4.0 | 8.0 | 0.00 | 0.00 | 0.00 | 83 | 1017.6 |
| 20260506175350 | 74 | 302 | 2.0 | 4.0 | 0.00 | 0.00 | 0.00 | 84 | 1017.8 |
| 20260506174847 | 73 | 275 | 2.0 | 7.0 | 0.00 | 0.00 | 0.00 | 84 | 1017.5 |
| 20260506174345 | 73 | 48 | 5.0 | 7.0 | 0.00 | 0.00 | 0.00 | 84 | 1017.8 |
| 20260506173842 | 73 | 1 | 5.0 | 8.0 | 0.00 | 0.00 | 0.00 | 84 | 1017.6 |
| 20260506173339 | 73 | 18 | 5.0 | 7.0 | 0.00 | 0.00 | 0.00 | 85 | 1017.5 |
| 20260506172836 | 73 | 21 | 4.0 | 7.0 | 0.00 | 0.00 | 0.00 | 85 | 1017.5 |
| 20260506172332 | 72 | 26 | 2.0 | 6.0 | 0.00 | 0.00 | 0.00 | 85 | 1017.5 |
| 20260506171830 | 72 | 109 | 1.0 | 7.0 | 0.00 | 0.00 | 0.00 | 86 | 1017.4 |
| 20260506171327 | 71 | 34 | 6.0 | 7.0 | 0.00 | 0.00 | 0.00 | 86 | 1017.3 |
| 20260506170825 | 71 | 54 | 4.0 | 8.0 | 0.00 | 0.00 | 0.00 | 87 | 1017.3 |
| 20260506170320 | 70 | 62 | 5.0 | 8.0 | 0.00 | 0.00 | 0.00 | 87 | 1017.1 |
| 20260506165819 | 70 | 0 | 4.0 | 6.0 | 0.00 | 0.00 | 0.00 | 88 | 1017.1 |